,,Stat6,,Stat2,,Stat8,,Stat9,,Stat10,,Wind1,,Wind1,
time,status,PA1M_AVG,status,PR1M_SUM,status,RH1M_AVG,status,SR1M_AVG,status,TA1M_AVG,status,W1dAve1m,status,W1sAve1m,
2004-11-03, 00:00:01,VALID,917.711,VALID,0,VALID,100,VALID,0,VALID,19.8451,VALID,329,VALID,0.622396,
2004-11-03, 00:01:01,VALID,917.703,VALID,0,VALID,100,VALID,0,VALID,19.8488,VALID,318,VALID,0.51527,
2004-11-03, 00:02:01,VALID,917.697,VALID,0,VALID,100,VALID,0.0169808,VALID,19.8649,VALID,321,VALID,0.259301,
2004-11-03, 00:03:01,VALID,917.69,VALID,0,VALID,100,VALID,0,VALID,19.8714,VALID,351,VALID,0.285974,
2004-11-03, 00:04:01,VALID,917.678,VALID,0,VALID,100,VALID,0,VALID,19.8682,VALID,351,VALID,0.00745739,
2004-11-03, 00:05:01,VALID,917.656,VALID,0,VALID,100,VALID,0,VALID,19.855,VALID,351,VALID,0.110518,
2004-11-03, 00:06:01,VALID,917.633,VALID,0,VALID,100,VALID,0,VALID,19.8816,VALID,351,VALID,0,
2004-11-03, 00:07:01,VALID,917.621,VALID,0,VALID,100,VALID,-0.0169808,VALID,19.891,VALID,351,VALID,0,
2004-11-03, 00:08:01,VALID,917.609,VALID,0,VALID,100,VALID,0.0679233,VALID,19.8942,VALID,351,VALID,0,
2004-11-03, 00:09:00,VALID,917.575,VALID,0,VALID,100,VALID,-0.0169808,VALID,19.897,VALID,351,VALID,0,
2004-11-03, 00:10:00,VALID,917.559,VALID,0,VALID,100,VALID,0,VALID,19.9039,VALID,351,VALID,0.107329,
2004-11-03, 00:11:00,VALID,917.541,VALID,0,VALID,100,VALID,0.0169808,VALID,19.9064,VALID,351,VALID,0,
2004-11-03, 00:12:00,VALID,917.535,VALID,0,VALID,100,VALID,0.0169808,VALID,19.9328,VALID,351,VALID,0.00104167,
2004-11-03, 00:13:00,VALID,917.518,VALID,0,VALID,100,VALID,0,VALID,19.9325,VALID,351,VALID,0.0225074,
2004-11-03, 00:14:00,VALID,917.502,VALID,0,VALID,100,VALID,0,VALID,19.9288,VALID,351,VALID,0.0401526,
2004-11-03, 00:15:00,VALID,917.502,VALID,0,VALID,100,VALID,0.0339617,VALID,19.9521,VALID,351,VALID,0,
2004-11-03, 00:16:00,VALID,917.498,VALID,0,VALID,100,VALID,0,VALID,19.9489,VALID,351,VALID,0.0934103,
2004-11-03, 00:17:00,VALID,917.49,VALID,0,VALID,100,VALID,-0.0169808,VALID,19.9785,VALID,351,VALID,0.0390625,
2004-11-03, 00:18:00,VALID,917.505,VALID,0,VALID,100,VALID,0.0169808,VALID,19.9782,VALID,351,VALID,0,
2004-11-03, 00:19:00,VALID,917.513,VALID,0,VALID,100,VALID,-0.0339617,VALID,19.9578,VALID,351,VALID,0,
2004-11-03, 00:20:00,VALID,917.514,VALID,0,VALID,100,VALID,0,VALID,19.9648,VALID,351,VALID,0,
2004-11-03, 00:21:00,VALID,917.506,VALID,0,VALID,100,VALID,0,VALID,19.9683,VALID,351,VALID,0,
2004-11-03, 00:22:00,VALID,917.498,VALID,0,VALID,100,VALID,0.0169808,VALID,19.9516,VALID,351,VALID,0.228871,
2004-11-03, 00:23:00,VALID,917.494,VALID,0,VALID,100,VALID,0.0169808,VALID,19.9226,VALID,343,VALID,0.398983,
2004-11-03, 00:24:00,VALID,917.486,VALID,0,VALID,100,VALID,0.0169808,VALID,19.9293,VALID,328,VALID,0.345203,
2004-11-03, 00:25:00,VALID,917.48,VALID,0,VALID,100,VALID,0.0169808,VALID,19.9191,VALID,328,VALID,0.0535974,
2004-11-03, 00:26:00,VALID,917.474,VALID,0,VALID,100,VALID,0.0509425,VALID,19.9449,VALID,328,VALID,0.210211,
2004-11-03, 00:27:00,VALID,917.471,VALID,0,VALID,100,VALID,0.0169808,VALID,19.9616,VALID,328,VALID,0.270774,
2004-11-03, 00:28:00,VALID,917.449,VALID,0,VALID,100,VALID,0.0169808,VALID,19.9452,VALID,328,VALID,0.178961,
2004-11-03, 00:29:00,VALID,917.458,VALID,0,VALID,100,VALID,0.0339617,VALID,19.9616,VALID,328,VALID,0.00419207,
2004-11-03, 00:30:00,VALID,917.458,VALID,0,VALID,100,VALID,0,VALID,19.9611,VALID,328,VALID,0,
2004-11-03, 00:31:00,VALID,917.465,VALID,0,VALID,100,VALID,0.0169808,VALID,19.9449,VALID,328,VALID,0,
2004-11-03, 00:32:00,VALID,917.46,VALID,0,VALID,100,VALID,0,VALID,19.9452,VALID,328,VALID,0,
2004-11-03, 00:33:00,VALID,917.464,VALID,0,VALID,100,VALID,0,VALID,19.9422,VALID,328,VALID,0,
2004-11-03, 00:34:00,VALID,917.463,VALID,0,VALID,100,VALID,0,VALID,19.9454,VALID,328,VALID,0,
2004-11-03, 00:35:00,VALID,917.462,VALID,0,VALID,100,VALID,0,VALID,19.9422,VALID,328,VALID,0,
2004-11-03, 00:36:00,VALID,917.461,VALID,0,VALID,100,VALID,0,VALID,19.9422,VALID,328,VALID,0,
2004-11-03, 00:37:00,VALID,917.458,VALID,0,VALID,100,VALID,0,VALID,19.9492,VALID,328,VALID,0,
2004-11-03, 00:38:00,VALID,917.43,VALID,0,VALID,100,VALID,0.0169808,VALID,19.9325,VALID,328,VALID,0.135538,
2004-11-03, 00:39:00,VALID,917.384,VALID,0,VALID,100,VALID,0.0169808,VALID,19.9221,VALID,328,VALID,0.0262277,
2004-11-03, 00:40:00,VALID,917.316,VALID,0,VALID,100,VALID,0.0169808,VALID,19.9352,VALID,328,VALID,0.0929487,
2004-11-03, 00:41:00,VALID,917.22,VALID,0,VALID,100,VALID,0.0169808,VALID,19.9094,VALID,328,VALID,0.176417,
2004-11-03, 00:42:00,VALID,917.143,VALID,0,VALID,100,VALID,0.0169808,VALID,19.9059,VALID,328,VALID,0.216493,
2004-11-03, 00:43:00,VALID,917.096,VALID,0,VALID,100,VALID,0.0169808,VALID,19.9169,VALID,328,VALID,0.0425967,
2004-11-03, 00:44:00,VALID,917.097,VALID,0,VALID,100,VALID,0.0169808,VALID,19.9029,VALID,328,VALID,0,
2004-11-03, 00:45:00,VALID,917.132,VALID,0,VALID,100,VALID,0,VALID,19.9032,VALID,328,VALID,0,
2004-11-03, 00:46:00,VALID,917.187,VALID,0,VALID,100,VALID,0,VALID,19.9032,VALID,328,VALID,0.228981,
2004-11-03, 00:47:00,VALID,917.249,VALID,0,VALID,100,VALID,0.0169808,VALID,19.9032,VALID,4,VALID,0.248365,
2004-11-03, 00:48:00,VALID,917.281,VALID,0,VALID,100,VALID,0,VALID,19.8932,VALID,81,VALID,1.11152,
2004-11-03, 00:49:00,VALID,917.306,VALID,0,VALID,100,VALID,0.0339617,VALID,19.8774,VALID,93,VALID,1.08794,
2004-11-03, 00:50:00,VALID,917.317,VALID,0,VALID,100,VALID,-0.0169808,VALID,19.8547,VALID,108,VALID,0.753567,
2004-11-03, 00:51:00,VALID,917.308,VALID,0,VALID,100,VALID,0,VALID,19.855,VALID,106,VALID,0.402344,
2004-11-03, 00:52:00,VALID,917.303,VALID,0,VALID,100,VALID,0,VALID,19.8647,VALID,104,VALID,0.204649,
2004-11-03, 00:53:00,VALID,917.291,VALID,0,VALID,100,VALID,0,VALID,19.8781,VALID,103,VALID,0.132631,
2004-11-03, 00:54:00,VALID,917.273,VALID,0,VALID,100,VALID,0,VALID,19.888,VALID,103,VALID,0.0739462,
2004-11-03, 00:55:00,VALID,917.266,VALID,0,VALID,100,VALID,-0.0169808,VALID,19.8843,VALID,106,VALID,0.0323661,
2004-11-03, 00:56:00,VALID,917.25,VALID,0,VALID,100,VALID,0.0169808,VALID,19.9002,VALID,106,VALID,0,
2004-11-03, 00:57:00,VALID,917.225,VALID,0,VALID,100,VALID,0,VALID,19.887,VALID,106,VALID,0.175877,
2004-11-03, 00:58:00,VALID,917.207,VALID,0,VALID,100,VALID,-0.0169808,VALID,19.8873,VALID,106,VALID,0.210211,
2004-11-03, 00:59:00,VALID,917.193,VALID,0,VALID,100,VALID,0,VALID,19.8841,VALID,106,VALID,0.272905,
2004-11-03, 01:00:00,VALID,917.17,VALID,0,VALID,100,VALID,0,VALID,19.8682,VALID,106,VALID,0.278011,
2004-11-03, 01:01:00,VALID,917.156,VALID,0,VALID,100,VALID,-0.0169808,VALID,19.8749,VALID,106,VALID,0.202106,
2004-11-03, 01:02:00,VALID,917.158,VALID,0,VALID,100,VALID,-0.0339617,VALID,19.8679,VALID,106,VALID,0.231707,
2004-11-03, 01:03:00,VALID,917.148,VALID,0,VALID,100,VALID,-0.0169808,VALID,19.8617,VALID,106,VALID,0.345022,
2004-11-03, 01:04:00,VALID,917.134,VALID,0,VALID,100,VALID,-0.0169808,VALID,19.8644,VALID,106,VALID,0.292629,
2004-11-03, 01:05:00,VALID,917.125,VALID,0,VALID,100,VALID,-0.0339617,VALID,19.8649,VALID,106,VALID,0.234947,
2004-11-03, 01:06:00,VALID,917.119,VALID,0,VALID,100,VALID,-0.0339617,VALID,19.8684,VALID,106,VALID,0.10103,
2004-11-03, 01:07:00,VALID,917.123,VALID,0,VALID,100,VALID,0,VALID,19.8908,VALID,103,VALID,0.475497,
2004-11-03, 01:08:00,VALID,917.12,VALID,0,VALID,100,VALID,0,VALID,19.8935,VALID,80,VALID,0.691584,
2004-11-03, 01:09:00,VALID,917.102,VALID,0,VALID,100,VALID,0,VALID,19.8878,VALID,68,VALID,0.787064,
2004-11-03, 01:10:00,VALID,917.081,VALID,0,VALID,100,VALID,0,VALID,19.8746,VALID,64,VALID,0.660457,
2004-11-03, 01:11:00,VALID,917.059,VALID,0,VALID,100,VALID,-0.0169808,VALID,19.8682,VALID,60,VALID,0.474023,
2004-11-03, 01:12:00,VALID,917.02,VALID,0,VALID,100,VALID,-0.0169808,VALID,19.8714,VALID,60,VALID,0.19798,
2004-11-03, 01:13:00,VALID,916.969,VALID,0,VALID,100,VALID,-0.0169808,VALID,19.8647,VALID,60,VALID,0.218403,
2004-11-03, 01:14:00,VALID,916.937,VALID,0,VALID,100,VALID,-0.0169808,VALID,19.8615,VALID,60,VALID,0.0868459,
2004-11-03, 01:15:00,VALID,916.908,VALID,0,VALID,100,VALID,-0.0169808,VALID,19.8647,VALID,60,VALID,0.0012429,
2004-11-03, 01:16:00,VALID,916.872,VALID,0,VALID,100,VALID,0,VALID,19.8677,VALID,60,VALID,0,
2004-11-03, 01:17:00,VALID,916.837,VALID,0,VALID,100,VALID,0.0169808,VALID,19.8808,VALID,60,VALID,0,
2004-11-03, 01:18:00,VALID,916.814,VALID,0,VALID,100,VALID,0,VALID,19.8647,VALID,60,VALID,0,
2004-11-03, 01:19:00,VALID,916.794,VALID,0,VALID,100,VALID,0,VALID,19.8716,VALID,82,VALID,0.507254,
2004-11-03, 01:20:00,VALID,916.787,VALID,0,VALID,100,VALID,0,VALID,19.8515,VALID,114,VALID,0.862664,
2004-11-03, 01:21:00,VALID,916.775,VALID,0,VALID,100,VALID,-0.0169808,VALID,19.8356,VALID,116,VALID,0.801962,
2004-11-03, 01:22:00,VALID,916.766,VALID,0,VALID,100,VALID,0,VALID,19.8225,VALID,103,VALID,0.612179,
2004-11-03, 01:23:00,VALID,916.728,VALID,0,VALID,100,VALID,0,VALID,19.8324,VALID,63,VALID,0.34032,
2004-11-03, 01:24:00,VALID,916.693,VALID,0,VALID,100,VALID,-0.0169808,VALID,19.8361,VALID,58,VALID,0.48316,
2004-11-03, 01:25:00,VALID,916.662,VALID,0,VALID,100,VALID,-0.0169808,VALID,19.8428,VALID,60,VALID,0.458212,
2004-11-03, 01:26:00,VALID,916.625,VALID,0,VALID,100,VALID,-0.0339617,VALID,19.8297,VALID,63,VALID,0.538132,
2004-11-03, 01:27:00,VALID,916.604,VALID,0,VALID,100,VALID,-0.0509425,VALID,19.817,VALID,70,VALID,0.0989583,
2004-11-03, 01:28:00,VALID,916.579,VALID,0,VALID,100,VALID,-0.0339617,VALID,19.8135,VALID,70,VALID,0,
2004-11-03, 01:29:00,VALID,916.551,VALID,0,VALID,100,VALID,-0.0339617,VALID,19.811,VALID,70,VALID,0.113186,
2004-11-03, 01:30:00,VALID,916.541,VALID,0,VALID,100,VALID,0,VALID,19.7939,VALID,70,VALID,0.282315,
2004-11-03, 01:31:00,VALID,916.513,VALID,0,VALID,100,VALID,-0.0339617,VALID,19.7874,VALID,70,VALID,0.353693,
2004-11-03, 01:32:00,VALID,916.489,VALID,0,VALID,100,VALID,-0.0169808,VALID,19.774,VALID,70,VALID,0.221591,
2004-11-03, 01:33:00,VALID,916.467,VALID,0,VALID,100,VALID,0,VALID,19.7877,VALID,70,VALID,0.0806108,
2004-11-03, 01:34:00,VALID,916.451,VALID,0,VALID,100,VALID,0,VALID,19.7847,VALID,70,VALID,0.165334,
2004-11-03, 01:35:00,VALID,916.445,VALID,0,VALID,100,VALID,-0.0339617,VALID,19.7849,VALID,70,VALID,0.326823,
2004-11-03, 01:36:00,VALID,916.449,VALID,0,VALID,100,VALID,-0.0169808,VALID,19.7745,VALID,70,VALID,0.391602,
2004-11-03, 01:37:00,VALID,916.448,VALID,0,VALID,100,VALID,-0.0169808,VALID,19.7815,VALID,70,VALID,0.554501,
2004-11-03, 01:38:00,VALID,916.458,VALID,0,VALID,100,VALID,-0.0339617,VALID,19.7651,VALID,70,VALID,0.634718,
2004-11-03, 01:39:00,VALID,916.459,VALID,0,VALID,100,VALID,-0.0339617,VALID,19.7656,VALID,70,VALID,0.449751,
2004-11-03, 01:40:00,VALID,916.433,VALID,0,VALID,100,VALID,-0.0339617,VALID,19.7589,VALID,70,VALID,0.261541,
2004-11-03, 01:41:00,VALID,916.412,VALID,0,VALID,100,VALID,-0.0339617,VALID,19.7556,VALID,70,VALID,0.178416,
2004-11-03, 01:42:00,VALID,916.39,VALID,0,VALID,100,VALID,-0.0169808,VALID,19.7589,VALID,70,VALID,0.0275136,
2004-11-03, 01:43:00,VALID,916.353,VALID,0,VALID,100,VALID,-0.0339617,VALID,19.7556,VALID,70,VALID,0,
2004-11-03, 01:44:00,VALID,916.338,VALID,0,VALID,100,VALID,-0.0169808,VALID,19.7554,VALID,70,VALID,0,
2004-11-03, 01:45:00,VALID,916.327,VALID,0,VALID,100,VALID,0,VALID,19.7355,VALID,70,VALID,0,
2004-11-03, 01:46:00,VALID,916.304,VALID,0,VALID,100,VALID,0,VALID,19.7427,VALID,70,VALID,0,
2004-11-03, 01:47:00,VALID,916.302,VALID,0,VALID,100,VALID,-0.0169808,VALID,19.7457,VALID,70,VALID,0,
2004-11-03, 01:48:00,VALID,916.291,VALID,0,VALID,100,VALID,-0.0509425,VALID,19.7425,VALID,70,VALID,0,
2004-11-03, 01:49:00,VALID,916.265,VALID,0,VALID,100,VALID,-0.0679233,VALID,19.7397,VALID,70,VALID,0,
2004-11-03, 01:50:00,VALID,916.248,VALID,0,VALID,100,VALID,-0.0509425,VALID,19.73,VALID,70,VALID,0,
2004-11-03, 01:51:00,VALID,916.229,VALID,0,VALID,100,VALID,-0.0509425,VALID,19.7204,VALID,70,VALID,0,
2004-11-03, 01:52:00,VALID,916.221,VALID,0,VALID,100,VALID,0,VALID,19.7104,VALID,70,VALID,0,
2004-11-03, 01:53:00,VALID,916.228,VALID,0,VALID,100,VALID,-0.0509425,VALID,19.7139,VALID,70,VALID,0,
2004-11-03, 01:54:00,VALID,916.241,VALID,0,VALID,100,VALID,-0.0339617,VALID,19.7069,VALID,70,VALID,0,
2004-11-03, 01:55:00,VALID,916.252,VALID,0,VALID,100,VALID,-0.0509425,VALID,19.7007,VALID,70,VALID,0,
2004-11-03, 01:56:00,VALID,916.264,VALID,0,VALID,100,VALID,-0.0339617,VALID,19.6975,VALID,70,VALID,0,
2004-11-03, 01:57:00,VALID,916.255,VALID,0,VALID,100,VALID,-0.0339617,VALID,19.7107,VALID,70,VALID,0,
2004-11-03, 01:58:00,VALID,916.264,VALID,0,VALID,100,VALID,0.0679233,VALID,19.6958,VALID,70,VALID,0,
2004-11-03, 01:59:00,VALID,916.243,VALID,0,VALID,100,VALID,0.0849042,VALID,19.6958,VALID,85,VALID,0.308498,
2004-11-03, 02:00:00,VALID,916.239,VALID,0,VALID,100,VALID,0.0509425,VALID,19.6863,VALID,112,VALID,0.524962,
2004-11-03, 02:01:00,VALID,916.235,VALID,0,VALID,100,VALID,0,VALID,19.7007,VALID,142,VALID,0.348544,
2004-11-03, 02:02:00,VALID,916.221,VALID,0,VALID,100,VALID,-0.0169808,VALID,19.694,VALID,149,VALID,0.405523,
2004-11-03, 02:03:00,VALID,916.223,VALID,0,VALID,100,VALID,-0.0169808,VALID,19.691,VALID,151,VALID,0.0470486,
2004-11-03, 02:04:00,VALID,916.223,VALID,0,VALID,100,VALID,0,VALID,19.6841,VALID,151,VALID,0.219308,
2004-11-03, 02:05:00,VALID,916.239,VALID,0,VALID,100,VALID,-0.0339617,VALID,19.6776,VALID,151,VALID,0.399891,
2004-11-03, 02:06:00,VALID,916.255,VALID,0,VALID,100,VALID,-0.0339617,VALID,19.6679,VALID,151,VALID,0.214844,
2004-11-03, 02:07:00,VALID,916.263,VALID,0,VALID,100,VALID,-0.0169808,VALID,19.6652,VALID,151,VALID,0.303385,
2004-11-03, 02:08:00,VALID,916.261,VALID,0,VALID,100,VALID,-0.0169808,VALID,19.6585,VALID,141,VALID,0.396439,
2004-11-03, 02:09:00,VALID,916.254,VALID,0,VALID,100,VALID,0,VALID,19.6486,VALID,134,VALID,0.135356,
2004-11-03, 02:10:00,VALID,916.245,VALID,0,VALID,100,VALID,-0.0339617,VALID,19.6491,VALID,134,VALID,0.0409226,
2004-11-03, 02:11:00,VALID,916.246,VALID,0,VALID,100,VALID,-0.0169808,VALID,19.6294,VALID,134,VALID,0.372275,
2004-11-03, 02:12:00,VALID,916.24,VALID,0,VALID,100,VALID,0,VALID,19.6426,VALID,134,VALID,0.370236,
2004-11-03, 02:13:00,VALID,916.229,VALID,0,VALID,100,VALID,-0.0169808,VALID,19.6461,VALID,134,VALID,0.424479,
2004-11-03, 02:14:00,VALID,916.252,VALID,0,VALID,100,VALID,-0.0169808,VALID,19.6421,VALID,134,VALID,0.221839,
2004-11-03, 02:15:00,VALID,916.26,VALID,0,VALID,100,VALID,-0.0339617,VALID,19.6555,VALID,134,VALID,0.0784801,
2004-11-03, 02:16:00,VALID,916.256,VALID,0,VALID,100,VALID,-0.0169808,VALID,19.659,VALID,134,VALID,0,
2004-11-03, 02:17:00,VALID,916.255,VALID,0,VALID,100,VALID,-0.0169808,VALID,19.6585,VALID,134,VALID,0,
2004-11-03, 02:18:00,VALID,916.263,VALID,0,VALID,100,VALID,-0.0169808,VALID,19.6684,VALID,134,VALID,0,
2004-11-03, 02:19:00,VALID,916.263,VALID,0,VALID,100,VALID,-0.0339617,VALID,19.6717,VALID,134,VALID,0,
2004-11-03, 02:20:00,VALID,916.266,VALID,0,VALID,100,VALID,-0.0169808,VALID,19.6714,VALID,134,VALID,0,
2004-11-03, 02:21:00,VALID,916.294,VALID,0,VALID,100,VALID,-0.0339617,VALID,19.6781,VALID,134,VALID,0,
2004-11-03, 02:22:00,VALID,916.311,VALID,0,VALID,100,VALID,-0.0339617,VALID,19.6806,VALID,134,VALID,0,
2004-11-03, 02:23:00,VALID,916.33,VALID,0,VALID,100,VALID,-0.0169808,VALID,19.6742,VALID,134,VALID,0,
2004-11-03, 02:24:00,VALID,916.328,VALID,0,VALID,100,VALID,-0.0169808,VALID,19.6811,VALID,134,VALID,0,
2004-11-03, 02:25:00,VALID,916.342,VALID,0,VALID,100,VALID,-0.0339617,VALID,19.6781,VALID,134,VALID,0,
2004-11-03, 02:26:00,VALID,916.341,VALID,0,VALID,100,VALID,0,VALID,19.6781,VALID,134,VALID,0,
2004-11-03, 02:27:00,VALID,916.334,VALID,0,VALID,100,VALID,-0.0169808,VALID,19.6645,VALID,134,VALID,0,
2004-11-03, 02:28:00,VALID,916.338,VALID,0,VALID,100,VALID,0,VALID,19.6615,VALID,134,VALID,0,
2004-11-03, 02:29:00,VALID,916.333,VALID,0,VALID,100,VALID,-0.0339617,VALID,19.6617,VALID,134,VALID,0,
2004-11-03, 02:30:00,VALID,916.329,VALID,0,VALID,100,VALID,0,VALID,19.6585,VALID,134,VALID,0,
2004-11-03, 02:31:00,VALID,916.333,VALID,0,VALID,100,VALID,0,VALID,19.6647,VALID,134,VALID,0,
2004-11-03, 02:32:00,VALID,916.326,VALID,0,VALID,100,VALID,0,VALID,19.6481,VALID,134,VALID,0,
2004-11-03, 02:33:00,VALID,916.315,VALID,0,VALID,100,VALID,-0.0169808,VALID,19.6655,VALID,134,VALID,0,
2004-11-03, 02:34:00,VALID,916.311,VALID,0,VALID,100,VALID,0,VALID,19.6486,VALID,134,VALID,0,
2004-11-03, 02:35:00,VALID,916.3,VALID,0,VALID,100,VALID,0,VALID,19.6456,VALID,134,VALID,0,
2004-11-03, 02:36:00,VALID,916.295,VALID,0,VALID,100,VALID,-0.0169808,VALID,19.6488,VALID,134,VALID,0,
2004-11-03, 02:37:00,VALID,916.311,VALID,0,VALID,100,VALID,0,VALID,19.6297,VALID,137,VALID,0.213914,
2004-11-03, 02:38:00,VALID,916.321,VALID,0,VALID,100,VALID,0,VALID,19.6066,VALID,158,VALID,0.611049,
2004-11-03, 02:39:00,VALID,916.336,VALID,0,VALID,100,VALID,0,VALID,19.6004,VALID,162,VALID,0.400343,
2004-11-03, 02:40:00,VALID,916.367,VALID,0,VALID,100,VALID,-0.0169808,VALID,19.5971,VALID,162,VALID,0.438953,
2004-11-03, 02:41:00,VALID,916.382,VALID,0,VALID,100,VALID,-0.0169808,VALID,19.5775,VALID,162,VALID,0.165064,
2004-11-03, 02:42:00,VALID,916.397,VALID,0,VALID,100,VALID,0,VALID,19.5812,VALID,161,VALID,0.150391,
2004-11-03, 02:43:00,VALID,916.407,VALID,0,VALID,100,VALID,-0.0169808,VALID,19.578,VALID,161,VALID,0.202172,
2004-11-03, 02:44:00,VALID,916.427,VALID,0,VALID,100,VALID,-0.0169808,VALID,19.5842,VALID,161,VALID,0.299352,
2004-11-03, 02:45:00,VALID,916.417,VALID,0,VALID,100,VALID,-0.0169808,VALID,19.581,VALID,161,VALID,0.229992,
2004-11-03, 02:46:00,VALID,916.413,VALID,0,VALID,100,VALID,-0.0849042,VALID,19.5887,VALID,161,VALID,0.00729167,
2004-11-03, 02:47:00,VALID,916.401,VALID,0,VALID,100,VALID,-0.101885,VALID,19.5857,VALID,161,VALID,0.0122768,
2004-11-03, 02:48:00,VALID,916.372,VALID,0,VALID,100,VALID,-0.101885,VALID,19.5889,VALID,161,VALID,0,
2004-11-03, 02:49:00,VALID,916.37,VALID,0,VALID,100,VALID,-0.101885,VALID,19.5755,VALID,161,VALID,0,
2004-11-03, 02:50:00,VALID,916.366,VALID,0,VALID,100,VALID,-0.101885,VALID,19.5763,VALID,161,VALID,0,
2004-11-03, 02:51:00,VALID,916.352,VALID,0,VALID,100,VALID,-0.0849042,VALID,19.5728,VALID,161,VALID,0,
2004-11-03, 02:52:00,VALID,916.359,VALID,0,VALID,100,VALID,-0.101885,VALID,19.5696,VALID,161,VALID,0,
2004-11-03, 02:53:00,VALID,916.36,VALID,0,VALID,100,VALID,-0.101885,VALID,19.576,VALID,161,VALID,0,
2004-11-03, 02:54:00,VALID,916.377,VALID,0,VALID,100,VALID,-0.101885,VALID,19.583,VALID,161,VALID,0,
2004-11-03, 02:55:00,VALID,916.386,VALID,0,VALID,100,VALID,-0.0679233,VALID,19.5728,VALID,161,VALID,0.247713,
2004-11-03, 02:56:00,VALID,916.383,VALID,0,VALID,100,VALID,-0.118866,VALID,19.5792,VALID,161,VALID,0.503815,
2004-11-03, 02:57:00,VALID,916.38,VALID,0,VALID,100,VALID,-0.118866,VALID,19.5822,VALID,161,VALID,0.571987,
2004-11-03, 02:58:00,VALID,916.385,VALID,0,VALID,100,VALID,-0.0849042,VALID,19.5887,VALID,161,VALID,0.464935,
2004-11-03, 02:59:00,VALID,916.377,VALID,0,VALID,100,VALID,-0.101885,VALID,19.5859,VALID,161,VALID,0.41282,
2004-11-03, 03:00:00,VALID,916.383,VALID,0,VALID,100,VALID,-0.0849042,VALID,19.5855,VALID,161,VALID,0.3625,
2004-11-03, 03:01:00,VALID,916.367,VALID,0,VALID,100,VALID,0.0169808,VALID,19.6038,VALID,161,VALID,0.417259,
2004-11-03, 03:02:00,VALID,916.354,VALID,0,VALID,100,VALID,0,VALID,19.5969,VALID,156,VALID,0.663336,
2004-11-03, 03:03:00,VALID,916.343,VALID,0,VALID,100,VALID,0.0169808,VALID,19.6232,VALID,151,VALID,0.521129,
2004-11-03, 03:04:00,VALID,916.343,VALID,0,VALID,100,VALID,0,VALID,19.613,VALID,152,VALID,0.522166,
2004-11-03, 03:05:00,VALID,916.33,VALID,0,VALID,100,VALID,0.0169808,VALID,19.6332,VALID,151,VALID,0.469494,
2004-11-03, 03:06:00,VALID,916.321,VALID,0,VALID,100,VALID,0,VALID,19.6332,VALID,151,VALID,0.49349,
2004-11-03, 03:07:00,VALID,916.307,VALID,0,VALID,100,VALID,0.0169808,VALID,19.6461,VALID,151,VALID,0.317649,
2004-11-03, 03:08:00,VALID,916.282,VALID,0,VALID,100,VALID,0.0169808,VALID,19.6456,VALID,151,VALID,0.0685976,
2004-11-03, 03:09:00,VALID,916.269,VALID,0,VALID,100,VALID,0,VALID,19.6587,VALID,151,VALID,0.0904796,
2004-11-03, 03:10:00,VALID,916.262,VALID,0,VALID,100,VALID,0,VALID,19.6655,VALID,148,VALID,0.289608,
2004-11-03, 03:11:00,VALID,916.237,VALID,0,VALID,100,VALID,0.0169808,VALID,19.6948,VALID,105,VALID,0.397135,
2004-11-03, 03:12:00,VALID,916.228,VALID,0,VALID,100,VALID,-0.0169808,VALID,19.6943,VALID,51,VALID,0.552871,
2004-11-03, 03:13:00,VALID,916.219,VALID,0,VALID,100,VALID,0,VALID,19.7042,VALID,50,VALID,0.682292,
2004-11-03, 03:14:00,VALID,916.209,VALID,0,VALID,100,VALID,-0.0169808,VALID,19.6945,VALID,49,VALID,0.718559,
2004-11-03, 03:15:00,VALID,916.203,VALID,0,VALID,100,VALID,0.0169808,VALID,19.6749,VALID,49,VALID,0.64444,
2004-11-03, 03:16:00,VALID,916.184,VALID,0,VALID,100,VALID,0,VALID,19.6781,VALID,49,VALID,0.578125,
2004-11-03, 03:17:00,VALID,916.176,VALID,0,VALID,100,VALID,0.0169808,VALID,19.6878,VALID,49,VALID,0.525484,
2004-11-03, 03:18:00,VALID,916.164,VALID,0,VALID,100,VALID,0,VALID,19.6746,VALID,49,VALID,0.305618,
2004-11-03, 03:19:00,VALID,916.15,VALID,0,VALID,100,VALID,0,VALID,19.6876,VALID,49,VALID,0.384084,
2004-11-03, 03:20:00,VALID,916.138,VALID,0,VALID,100,VALID,0.0169808,VALID,19.6843,VALID,49,VALID,0.371548,
2004-11-03, 03:21:00,VALID,916.143,VALID,0,VALID,100,VALID,0,VALID,19.6878,VALID,49,VALID,0.330669,
2004-11-03, 03:22:00,VALID,916.135,VALID,0,VALID,100,VALID,0.0169808,VALID,19.6843,VALID,49,VALID,0.356105,
2004-11-03, 03:23:00,VALID,916.132,VALID,0,VALID,100,VALID,0,VALID,19.6878,VALID,49,VALID,0.504514,
2004-11-03, 03:24:00,VALID,916.134,VALID,0,VALID,100,VALID,0.0169808,VALID,19.7005,VALID,49,VALID,0.449219,
2004-11-03, 03:25:00,VALID,916.134,VALID,0,VALID,100,VALID,0.0169808,VALID,19.7007,VALID,45,VALID,0.545015,
2004-11-03, 03:26:00,VALID,916.137,VALID,0,VALID,100,VALID,0,VALID,19.6945,VALID,39,VALID,0.458789,
2004-11-03, 03:27:00,VALID,916.13,VALID,0,VALID,100,VALID,0.0169808,VALID,19.6811,VALID,20,VALID,0.625,
2004-11-03, 03:28:00,VALID,916.137,VALID,0,VALID,100,VALID,0.0169808,VALID,19.6814,VALID,16,VALID,0.668341,
2004-11-03, 03:29:00,VALID,916.135,VALID,0,VALID,100,VALID,0,VALID,19.6684,VALID,12,VALID,0.780185,
2004-11-03, 03:30:00,VALID,916.134,VALID,0,VALID,100,VALID,-0.0169808,VALID,19.655,VALID,9,VALID,0.542111,
2004-11-03, 03:31:00,VALID,916.125,VALID,0,VALID,100,VALID,-0.0679233,VALID,19.6664,VALID,2,VALID,0.441406,
2004-11-03, 03:32:00,VALID,916.12,VALID,0,VALID,100,VALID,-0.0849042,VALID,19.6535,VALID,2,VALID,0.510831,
2004-11-03, 03:33:00,VALID,916.132,VALID,0,VALID,100,VALID,-0.101885,VALID,19.6433,VALID,351,VALID,0.587754,
2004-11-03, 03:34:00,VALID,916.128,VALID,0,VALID,100,VALID,-0.0849042,VALID,19.66,VALID,347,VALID,0.458079,
2004-11-03, 03:35:00,VALID,916.137,VALID,0,VALID,100,VALID,-0.101885,VALID,19.66,VALID,347,VALID,0.409979,
2004-11-03, 03:36:00,VALID,916.146,VALID,0,VALID,100,VALID,-0.101885,VALID,19.6697,VALID,347,VALID,0.46895,
2004-11-03, 03:37:00,VALID,916.147,VALID,0,VALID,100,VALID,-0.101885,VALID,19.6958,VALID,360,VALID,0.497768,
2004-11-03, 03:38:00,VALID,916.162,VALID,0,VALID,100,VALID,-0.101885,VALID,19.6955,VALID,11,VALID,0.57777,
2004-11-03, 03:39:00,VALID,916.171,VALID,0,VALID,100,VALID,-0.0849042,VALID,19.6958,VALID,7,VALID,0.502096,
2004-11-03, 03:40:00,VALID,916.17,VALID,0,VALID,100,VALID,-0.101885,VALID,19.6955,VALID,7,VALID,0.407366,
2004-11-03, 03:41:00,VALID,916.183,VALID,0,VALID,100,VALID,-0.0849042,VALID,19.6861,VALID,4,VALID,0.527174,
2004-11-03, 03:42:00,VALID,916.181,VALID,0,VALID,100,VALID,-0.101885,VALID,19.6893,VALID,2,VALID,0.436738,
2004-11-03, 03:43:00,VALID,916.181,VALID,0,VALID,100,VALID,-0.101885,VALID,19.6826,VALID,2,VALID,0.430618,
2004-11-03, 03:44:00,VALID,916.194,VALID,0,VALID,100,VALID,-0.101885,VALID,19.6796,VALID,2,VALID,0.438988,
2004-11-03, 03:45:00,VALID,916.198,VALID,0,VALID,100,VALID,-0.0509425,VALID,19.6851,VALID,2,VALID,0.483842,